Temperature
18 16 15 14 13 13 13 12 12 12 12 12 11 11 11 11 11 11 11 11 11 11 11 11 11 11 11 11 11 12 12 12 12 12 12 11 12 12 13 13 14 14 14
19 17 15 14 13 13 13 12 12 12 12 11 11 11 11 11 10 10 10 10 10 11 11 11 11 11 11 11 11 11 12 12 12 12 12 11 11 11 12 12 12 12 13
19 18 16 15 14 13 12 12 12 12 11 11 11 11 11 10 10 10 10 10 10 10 10 10 10 11 11 11 11 11 11 12 12 12 11 11 10 10 10 11 11 11 12
18 18 17 15 14 13 13 12 12 12 11 11 11 11 10 10 10 10 10 10 10 10 11 11 11 11 11 11 11 11 12 12 12 11 11 11 10 9 10 10 10 10 11
18 18 17 15 14 13 13 12 12 11 11 11 11 11 10 10 10 10 10 10 10 11 11 11 11 11 11 11 11 11 12 12 11 11 11 11 10 9 9 10 10 10 10
18 18 17 16 14 13 13 12 12 11 11 11 10 10 10 10 10 10 10 10 10 11 11 11 11 11 11 11 11 11 11 11 11 11 11 11 10 9 9 9 10 10 10
18 17 16 15 14 13 12 12 12 11 11 10 10 10 10 10 10 10 10 10 10 10 10 10 11 11 11 11 11 11 11 11 11 11 11 10 10 9 9 9 10 10 10
18 17 16 15 13 13 12 12 12 11 11 10 10 10 10 10 10 10 10 10 10 10 10 10 10 10 11 11 11 11 11 11 10 10 10 10 10 10 9 10 10 10 10
17 17 16 14 13 12 12 12 11 11 10 10 10 10 10 9 9 10 10 10 10 10 10 10 10 10 10 10 10 10 10 10 10 10 10 10 10 10 9 9 9 10 10
17 16 15 14 13 12 12 11 11 11 10 10 10 10 10 9 9 9 9 9 9 9 10 10 10 10 10 10 10 10 10 10 10 10 10 10 10 10 9 9 9 9 9
16 16 15 14 13 12 11 11 11 11 10 10 10 10 9 9 9 9 9 9 9 9 9 9 9 9 9 9 9 9 9 9 9 9 9 9 9 9 8 8 8 8 8
17 16 15 14 13 12 11 11 11 10 10 10 10 9 9 9 9 9 9 9 9 8 8 8 8 8 9 9 8 9 9 9 9 9 9 9 9 9 8 8 8 8 8
17 16 15 14 13 12 12 11 11 10 10 10 10 9 9 9 9 9 8 8 8 8 8 8 8 8 8 8 8 8 8 8 8 8 8 8 8 8 8 7 7 7 7
17 16 15 14 13 12 12 11 11 10 10 10 9 9 9 9 9 8 8 8 8 8 8 7 7 7 7 7 7 8 7 8 8 8 8 8 8 8 8 7 7 7 7
16 16 15 14 13 12 12 11 11 10 10 10 9 9 9 9 9 8 8 8 8 8 8 7 7 7 7 7 7 7 7 7 7 8 8 8 8 8 8 7 7 7 7
16 16 15 14 13 12 12 11 11 11 10 10 10 9 9 9 9 9 8 8 8 8 8 7 7 7 7 7 7 7 7 7 7 7 7 8 8 8 8 8 8 7 7
16 16 15 14 13 12 12 12 11 11 10 10 10 9 9 9 9 9 8 8 8 8 8 7 7 7 7 7 7 7 7 7 7 7 7 8 8 8 8 8 8 8 7
16 16 15 14 13 13 12 11 11 11 10 10 10 9 9 9 9 9 8 8 8 8 8 7 7 7 7 7 7 7 7 7 7 7 7 7 8 8 7 7 7 7 7
16 16 15 14 14 13 12 11 11 11 10 10 10 9 9 9 9 9 8 8 8 8 8 7 7 7 7 7 7 7 7 7 7 8 8 8 7 7 7 7 7 7 7
16 16 15 14 13 13 12 11 11 10 10 10 10 9 9 9 9 9 8 8 8 8 7 7 7 7 7 7 7 7 7 7 8 8 7 7 7 7 7 7 6 6 6
16 15 15 14 13 12 12 11 11 10 10 10 10 9 9 9 9 9 8 8 8 8 7 7 7 7 7 6 6 6 7 7 7 7 7 7 7 6 6 6 6 6 6
15 15 14 14 13 12 12 11 11 10 10 10 10 9 9 9 9 9 8 8 8 7 7 7 7 6 6 6 5 5 5 6 5 6 6 6 6 6 6 6 5 6 6
15 14 14 13 13 12 11 11 11 10 10 10 9 9 9 9 9 8 8 8 8 7 7 7 6 6 6 5 5 4 4 3 3 4 5 5 5 5 5 5 5 5 5
14 14 13 13 12 12 11 11 11 10 10 10 9 9 9 9 8 8 8 8 7 7 7 6 6 6 5 5 5 4 4 3 2 2 3 4 4 4 5 5 5 5 5
14 13 13 13 12 12 11 11 11 10 10 10 10 9 9 9 8 8 8 8 7 7 7 6 6 6 5 5 5 4 4 3 3 2 2 3 4 4 4 4 4 5 4
13 13 13 13 12 12 11 11 11 10 10 10 10 9 9 9 8 8 8 7 7 7 6 6 6 5 5 5 4 4 3 3 3 1 1 1 2 3 3 4 4 4 4
Wind_Speed
6 12 18 18 16 15 14 14 14 13 12 12 12 12 12 12 12 13 13 14 14 14 15 15 16 15 16 16 17 17 17 18 19 19 19 19 18 18 18 18 18 18 19
9 18 20 19 17 15 15 14 14 13 12 12 12 12 12 12 12 13 13 13 13 14 14 14 14 14 14 15 15 16 16 16 17 18 18 17 17 17 17 17 17 16 17
11 20 20 20 18 16 15 15 14 13 12 12 12 11 11 11 11 11 12 12 12 13 13 13 13 13 13 14 14 15 15 15 15 16 17 17 15 16 16 16 16 16 16
17 20 19 21 19 18 16 15 15 14 13 12 11 11 11 11 11 11 11 11 11 11 12 12 12 12 12 13 13 14 14 14 14 15 16 16 14 13 14 15 15 14 14
16 18 20 22 20 19 17 16 15 15 13 12 11 11 11 10 10 10 10 10 10 11 11 11 11 11 11 12 12 12 12 13 13 15 16 16 15 12 13 13 13 13 13
13 17 20 22 20 19 18 17 15 14 14 13 12 11 10 10 10 9 9 9 9 9 10 10 10 10 10 10 10 11 11 11 12 13 14 15 14 11 12 11 11 11 11
11 16 19 22 20 19 18 17 16 14 13 13 12 11 10 10 9 9 8 8 8 8 8 9 9 9 9 9 9 9 9 9 10 10 11 12 11 10 10 10 10 10 10
11 15 18 21 20 19 18 17 16 14 13 12 12 11 10 9 8 8 7 7 7 7 7 7 8 8 8 8 8 8 8 7 7 8 8 9 9 9 8 8 9 9 8
12 13 14 18 19 19 18 17 16 15 14 13 12 11 10 9 8 7 6 6 5 5 5 5 6 6 6 6 7 7 7 6 6 6 7 8 9 9 8 7 7 7 7
8 9 11 15 17 17 18 18 17 15 14 13 12 11 11 9 8 7 6 5 4 3 3 3 4 4 5 5 5 6 6 5 5 6 7 8 9 9 9 8 8 8 8
10 8 9 11 14 16 16 17 17 16 14 13 12 12 11 9 8 7 6 5 3 2 1 1 3 3 4 5 6 6 6 5 6 7 8 9 10 11 11 10 10 10 10
15 12 8 9 12 14 15 15 15 15 14 13 12 12 12 10 9 7 6 5 4 2 2 2 3 4 4 4 6 6 7 7 8 9 10 11 12 13 13 13 13 12 12
14 14 11 9 13 13 12 12 12 12 12 12 13 13 12 10 8 7 6 5 4 3 2 3 3 3 4 5 6 7 8 9 9 11 13 13 13 14 15 15 15 15 15
11 14 12 10 11 12 13 11 11 11 10 10 12 13 12 9 8 7 7 7 6 5 5 5 5 5 6 6 7 8 9 10 11 12 14 14 14 15 16 17 17 17 17
12 14 13 11 10 11 11 10 10 10 11 12 12 13 13 10 8 8 7 7 8 7 7 6 6 6 6 7 8 8 10 11 12 13 15 15 16 16 17 18 19 19 19
12 14 13 14 12 11 9 8 9 11 11 12 12 13 14 11 9 7 7 7 8 8 8 7 6 6 6 7 8 9 10 11 12 14 15 16 16 17 18 19 19 19 19
10 12 14 14 12 11 10 10 10 11 11 10 11 12 12 11 10 8 6 6 7 7 7 6 5 5 5 5 6 8 9 10 11 13 15 15 16 15 16 18 18 18 18
9 11 13 12 12 11 9 9 9 10 10 9 10 10 11 11 10 8 5 5 6 5 5 4 3 3 4 4 4 4 6 9 11 13 13 14 13 13 14 15 15 16 16
9 11 12 12 13 12 9 9 9 9 8 8 8 8 8 8 8 7 5 5 5 4 4 3 2 2 3 4 4 5 5 5 8 10 10 11 11 11 12 12 12 13 14
7 9 11 10 11 10 7 6 5 5 4 6 6 6 6 6 6 6 4 4 4 2 2 1 2 2 3 3 4 5 6 6 6 5 7 8 9 9 9 9 10 10 12
6 8 10 11 10 10 7 6 5 4 3 3 3 4 5 5 5 5 3 2 2 2 2 1 1 2 2 1 2 4 5 4 4 4 4 5 6 8 8 8 10 11 13
6 8 9 10 11 10 7 5 4 4 3 3 4 5 4 4 4 4 3 2 2 1 1 1 1 0 1 0 0 2 5 5 4 3 3 4 4 6 7 9 12 14 15
6 8 9 9 10 9 9 6 5 5 4 3 3 2 3 4 5 4 4 3 2 2 1 1 2 2 1 1 1 2 2 4 4 4 4 4 4 4 5 10 14 16 17
6 6 8 8 9 9 9 9 8 5 4 4 3 3 3 5 5 5 5 4 3 2 1 1 1 2 2 2 2 2 4 3 3 5 4 4 5 6 7 8 12 16 18
6 7 7 9 8 8 8 9 9 6 4 4 3 4 3 3 4 4 4 4 3 2 1 1 1 1 2 3 3 2 3 3 5 6 7 5 4 5 6 7 11 14 17
6 7 8 9 7 7 8 8 9 9 8 7 5 4 3 2 2 3 3 3 2 1 1 1 1 2 3 3 3 3 4 4 4 5 7 6 7 5 6 7 8 10 14
Wind_Direction
202 190 174 162 160 156 150 144 135 127 121 116 113 107 101 94 88 84 80 76 72 70 68 67 65 66 66 65 64 62 60 58 55 53 51 54 58 57 56 54 51 46 47
162 177 173 164 162 159 151 144 138 132 126 119 115 111 105 98 90 83 80 76 73 70 68 67 66 65 66 65 63 63 62 62 59 55 48 42 51 56 54 53 53 51 50
151 169 171 165 164 160 153 145 141 137 130 124 117 113 108 102 93 86 81 78 75 72 70 68 67 66 65 64 63 63 62 63 60 53 43 32 36 55 54 53 52 51 50
156 166 169 166 164 161 156 149 147 142 136 130 123 118 112 104 97 91 85 81 78 75 72 70 68 67 65 64 64 63 62 63 58 49 38 30 27 50 51 50 50 49 49
157 166 169 166 165 164 160 154 150 145 142 136 130 125 116 108 102 95 89 84 81 77 74 71 69 68 66 63 62 62 62 60 52 44 35 26 19 44 50 47 45 45 44
157 166 171 168 168 166 162 159 156 152 149 144 139 133 124 115 107 100 95 90 85 80 77 73 70 67 65 63 62 61 62 58 49 41 30 21 12 36 44 42 39 38 38
156 165 173 171 170 168 165 163 161 159 156 150 146 141 132 122 114 107 101 95 89 83 78 73 69 65 62 59 58 58 58 56 49 38 24 12 7 26 32 32 30 28 29
154 162 174 174 173 172 170 168 165 165 162 156 153 148 139 130 125 119 111 102 92 83 76 70 64 61 58 55 52 52 51 52 47 31 13 1 359 9 16 17 13 12 13
153 161 176 177 176 175 174 172 170 170 166 162 159 155 147 140 136 131 122 114 102 89 74 64 58 52 47 45 44 43 43 46 38 13 355 345 344 349 354 356 353 352 352
156 166 178 177 177 177 177 176 175 175 173 168 165 160 153 149 145 141 138 134 125 109 83 61 47 38 31 27 23 21 28 27 8 349 335 328 328 331 334 334 333 331 328
175 178 181 178 177 176 177 179 178 179 179 174 170 166 158 152 148 148 156 166 165 156 129 38 17 11 15 10 2 1 5 352 335 323 318 315 320 322 323 323 321 317 314
187 188 185 179 176 174 178 180 179 180 180 176 172 167 159 161 164 167 178 196 211 219 245 309 342 4 4 341 335 337 333 324 315 308 306 309 314 316 317 317 316 313 310
188 189 189 183 178 175 174 174 175 176 175 174 172 169 167 168 172 177 192 215 232 244 259 299 326 324 317 312 312 314 312 308 302 299 300 303 307 310 312 313 312 310 306
185 193 189 184 179 178 175 175 173 172 173 174 176 174 169 169 178 189 201 212 220 228 236 254 270 282 290 293 294 295 296 293 291 292 294 296 301 305 308 308 308 306 304
192 194 191 185 181 177 174 175 175 176 178 181 181 182 182 181 190 198 208 216 222 225 228 237 251 267 276 281 280 277 279 283 284 285 287 292 296 300 303 306 306 306 304
197 196 191 190 185 177 176 175 177 180 183 182 185 189 192 194 196 196 205 217 226 227 231 235 242 253 263 269 274 275 276 281 284 286 287 290 293 297 301 305 306 306 304
197 193 192 191 184 180 178 177 177 181 182 183 189 194 195 198 201 200 202 215 226 228 229 237 248 253 263 265 269 277 279 281 281 282 284 286 289 294 300 306 309 309 308
192 187 190 188 184 183 179 174 173 177 180 184 186 189 195 201 201 195 197 216 222 213 213 223 230 245 260 267 275 280 278 279 278 280 283 285 289 293 300 308 315 318 318
189 182 181 181 180 180 174 167 164 165 171 176 177 180 188 192 193 190 199 214 208 202 211 226 222 223 263 278 279 278 274 270 275 283 287 292 296 300 304 311 320 326 329
171 170 171 170 170 166 157 144 136 136 146 154 165 174 179 183 187 188 196 204 189 180 207 217 239 235 253 276 289 287 278 274 280 283 289 298 304 309 313 318 325 328 332
143 154 162 162 162 160 159 156 151 152 145 138 145 151 157 161 167 172 174 169 163 179 210 209 218 257 272 300 319 311 301 298 305 286 285 294 306 316 323 326 327 323 321
148 152 155 160 161 163 162 153 141 134 128 123 115 109 115 130 141 149 148 142 145 152 147 159 164 201 282 23 348 331 328 332 334 312 308 299 303 317 317 319 318 313 312
149 156 157 156 157 153 144 129 111 96 89 97 102 97 85 111 119 123 128 127 123 140 162 179 171 179 235 278 204 208 281 290 304 302 300 295 298 299 302 307 304 302 302
158 148 143 144 147 147 147 150 149 148 150 158 144 125 92 88 98 106 112 115 117 125 142 171 160 174 179 242 270 238 230 231 275 302 300 292 291 288 290 294 293 294 294
149 143 138 135 137 143 147 151 145 136 132 125 118 115 98 74 84 98 108 111 112 119 137 157 174 193 192 208 220 233 248 247 234 253 283 292 294 268 270 275 282 285 288
142 139 140 137 136 141 143 145 146 143 141 138 136 135 121 96 75 81 101 107 115 128 165 201 209 218 218 224 226 217 217 230 232 237 265 283 286 275 271 267 269 275 282
Height
1538 1539 1542 1544 1546 1548 1550 1551 1553 1553 1554 1555 1555 1555 1556 1556 1556 1556 1556 1556 1556 1556 1556 1556 1556 1556 1556 1555 1555 1555 1555 1555 1555 1555 1555 1555 1555 1555 1554 1554 1554 1554 1554
1538 1539 1541 1544 1546 1548 1550 1552 1553 1554 1555 1555 1556 1556 1557 1557 1557 1557 1557 1557 1557 1557 1557 1557 1557 1557 1557 1556 1556 1556 1555 1555 1555 1555 1555 1555 1555 1555 1555 1554 1554 1554 1554
1538 1539 1541 1543 1546 1548 1550 1552 1553 1554 1555 1556 1557 1557 1558 1558 1558 1558 1558 1558 1558 1558 1558 1558 1557 1557 1557 1557 1557 1557 1556 1556 1556 1556 1556 1556 1556 1556 1555 1555 1555 1554 1554
1538 1539 1541 1543 1546 1548 1550 1551 1553 1554 1555 1556 1557 1558 1558 1559 1559 1559 1559 1559 1559 1558 1558 1558 1558 1558 1558 1558 1558 1557 1557 1557 1557 1557 1557 1556 1556 1556 1556 1555 1555 1555 1554
1538 1540 1542 1544 1546 1548 1550 1551 1553 1554 1556 1557 1558 1558 1559 1559 1560 1560 1560 1560 1559 1559 1559 1559 1559 1559 1559 1559 1559 1558 1558 1558 1558 1558 1558 1557 1557 1557 1557 1556 1555 1555 1555
1538 1540 1542 1544 1546 1548 1550 1552 1553 1555 1556 1557 1558 1559 1560 1560 1560 1560 1560 1560 1560 1560 1560 1560 1560 1560 1560 1560 1559 1559 1559 1559 1559 1559 1559 1558 1558 1558 1557 1556 1556 1555 1555
1538 1540 1542 1544 1546 1548 1550 1552 1553 1555 1556 1558 1558 1559 1560 1561 1561 1561 1561 1561 1561 1561 1561 1561 1561 1561 1561 1561 1560 1560 1560 1560 1560 1560 1560 1559 1558 1558 1558 1557 1556 1556 1555
1538 1540 1542 1544 1546 1548 1550 1552 1554 1555 1557 1558 1559 1560 1561 1561 1561 1562 1562 1562 1562 1562 1562 1562 1562 1562 1561 1561 1561 1561 1561 1561 1561 1560 1560 1560 1559 1558 1558 1557 1557 1556 1555
1538 1540 1541 1544 1546 1548 1550 1552 1554 1555 1557 1558 1559 1561 1561 1562 1562 1562 1563 1563 1563 1563 1563 1563 1563 1563 1562 1562 1562 1562 1562 1561 1561 1561 1560 1560 1559 1558 1558 1557 1557 1556 1555
1537 1539 1541 1543 1545 1548 1550 1552 1554 1555 1557 1558 1560 1561 1562 1562 1563 1563 1563 1564 1564 1564 1564 1564 1564 1563 1563 1563 1563 1562 1562 1562 1561 1561 1560 1559 1559 1558 1558 1557 1557 1556 1555
1535 1537 1539 1542 1544 1547 1549 1551 1553 1555 1557 1558 1560 1561 1562 1562 1563 1563 1564 1564 1564 1564 1564 1564 1564 1564 1563 1563 1563 1562 1562 1561 1561 1560 1559 1559 1558 1557 1557 1556 1556 1555 1554
1533 1535 1537 1540 1542 1545 1548 1550 1552 1554 1556 1558 1559 1560 1561 1562 1563 1563 1564 1564 1564 1565 1565 1564 1564 1564 1563 1563 1562 1562 1561 1561 1560 1559 1558 1557 1557 1556 1555 1555 1554 1554 1553
1531 1533 1535 1538 1541 1543 1546 1548 1551 1553 1555 1557 1558 1560 1561 1562 1562 1563 1563 1564 1564 1564 1564 1564 1564 1563 1563 1562 1562 1561 1560 1559 1558 1558 1557 1556 1555 1554 1553 1553 1552 1551 1551
1528 1530 1533 1536 1539 1542 1544 1547 1549 1552 1554 1556 1557 1559 1560 1561 1561 1562 1563 1563 1563 1563 1563 1563 1562 1562 1562 1561 1560 1559 1558 1557 1556 1555 1554 1553 1552 1551 1550 1549 1549 1548 1548
1526 1528 1530 1533 1536 1540 1543 1545 1548 1550 1552 1554 1556 1558 1559 1560 1560 1561 1561 1562 1562 1562 1562 1561 1561 1560 1560 1559 1558 1557 1556 1555 1554 1553 1552 1551 1549 1548 1547 1546 1545 1544 1544
1522 1525 1528 1531 1534 1537 1540 1543 1546 1548 1551 1553 1555 1556 1557 1558 1559 1559 1560 1560 1560 1560 1560 1559 1559 1558 1557 1556 1555 1554 1553 1552 1550 1549 1548 1547 1546 1544 1543 1541 1540 1539 1539
1519 1521 1524 1528 1531 1534 1538 1541 1544 1547 1549 1551 1553 1554 1555 1556 1557 1557 1558 1558 1558 1558 1557 1557 1556 1555 1554 1553 1552 1551 1549 1548 1547 1545 1544 1543 1542 1540 1539 1537 1536 1535 1534
1515 1518 1521 1524 1528 1532 1535 1539 1542 1545 1547 1549 1550 1552 1553 1554 1554 1555 1555 1555 1555 1555 1554 1554 1553 1552 1551 1550 1548 1547 1545 1544 1542 1541 1540 1539 1537 1536 1535 1533 1532 1530 1529
1511 1514 1517 1521 1524 1529 1533 1537 1540 1542 1545 1546 1548 1550 1551 1551 1552 1552 1552 1552 1552 1552 1551 1550 1549 1548 1547 1545 1544 1542 1541 1539 1538 1537 1535 1534 1533 1532 1531 1530 1528 1527 1525
1508 1511 1514 1518 1522 1526 1530 1534 1537 1540 1542 1544 1546 1547 1548 1549 1549 1549 1549 1549 1549 1548 1548 1547 1546 1544 1543 1541 1539 1537 1536 1534 1533 1531 1531 1530 1529 1528 1527 1526 1524 1523 1521
1505 1508 1511 1514 1518 1522 1526 1530 1534 1537 1540 1542 1543 1545 1545 1546 1546 1546 1546 1546 1545 1545 1544 1543 1542 1541 1539 1538 1535 1532 1530 1529 1527 1526 1526 1526 1526 1525 1523 1522 1520 1518 1517
1503 1505 1508 1512 1515 1520 1524 1528 1531 1534 1537 1539 1541 1542 1543 1543 1543 1543 1543 1542 1542 1541 1541 1540 1538 1537 1536 1534 1532 1529 1525 1524 1522 1522 1522 1521 1521 1520 1519 1517 1515 1513 1511
1501 1503 1506 1510 1513 1517 1521 1525 1529 1532 1534 1536 1538 1539 1540 1540 1540 1540 1539 1539 1538 1538 1537 1536 1535 1534 1532 1531 1530 1529 1526 1521 1518 1515 1515 1515 1515 1514 1513 1511 1510 1508 1505
1499 1502 1505 1508 1511 1515 1519 1522 1525 1528 1531 1533 1535 1536 1537 1537 1537 1536 1536 1536 1535 1534 1534 1533 1531 1530 1529 1527 1526 1525 1524 1521 1518 1511 1509 1510 1509 1508 1507 1505 1503 1501 1499
1497 1500 1503 1506 1510 1513 1517 1520 1523 1526 1528 1530 1532 1533 1533 1534 1533 1533 1533 1532 1532 1531 1530 1529 1528 1527 1525 1524 1523 1521 1519 1517 1515 1511 1504 1501 1501 1500 1499 1498 1496 1494 1492
1495 1498 1501 1504 1508 1511 1514 1517 1520 1523 1525 1527 1529 1530 1530 1530 1530 1530 1530 1529 1528 1527 1526 1525 1524 1523 1521 1520 1518 1516 1515 1513 1510 1507 1501 1495 1492 1491 1491 1490 1489 1487 1484